Time,TemperatureF,DewpointF,PressureIn,WindDirection,WindDirectionDegrees,WindSpeedMPH,WindSpeedGustMPH,Humidity,HourlyPrecipIn,Conditions,Clouds,dailyrainin,SolarRadiationWatts/m^2,SoftwareType,DateUTC
2013-02-06 00:01:00,33.0,16.0,-100.00,NE,54,1.0,3.0,48,-99.99,,,0.00,0.000000,,2013-02-06 08:01:00,
2013-02-06 00:11:00,33.0,16.0,-100.00,NE,54,1.0,3.0,48,-99.99,,,0.00,0.000000,,2013-02-06 08:11:00,
2013-02-06 00:41:00,28.0,15.0,-100.00,South,170,2.0,4.0,56,-99.99,,,0.00,0.000000,,2013-02-06 08:41:00,
2013-02-06 00:53:00,28.0,15.0,-100.00,South,170,2.0,4.0,56,-99.99,,,0.00,0.000000,,2013-02-06 08:53:00,
2013-02-06 01:01:00,28.0,15.0,-100.00,South,170,2.0,4.0,56,-99.99,,,0.00,0.000000,,2013-02-06 09:01:00,
2013-02-06 01:11:00,28.0,15.0,-100.00,South,170,2.0,4.0,56,-99.99,,,0.00,0.000000,,2013-02-06 09:11:00,
2013-02-06 01:41:00,24.0,14.0,-100.00,South,187,2.0,6.0,63,-99.99,,,0.00,0.000000,,2013-02-06 09:41:00,
2013-02-06 01:52:00,24.0,14.0,-100.00,South,187,2.0,6.0,63,-99.99,,,0.00,0.000000,,2013-02-06 09:52:00,
2013-02-06 02:01:00,24.0,14.0,-100.00,South,187,2.0,6.0,63,-99.99,,,0.00,0.000000,,2013-02-06 10:01:00,
2013-02-06 02:41:00,26.0,15.0,-100.00,West,276,3.0,5.0,64,-99.99,,,0.00,0.000000,,2013-02-06 10:41:00,
2013-02-06 02:52:00,26.0,15.0,-100.00,West,276,3.0,5.0,64,-99.99,,,0.00,0.000000,,2013-02-06 10:52:00,
2013-02-06 03:01:00,26.0,15.0,-100.00,West,276,3.0,5.0,64,-99.99,,,0.00,0.000000,,2013-02-06 11:01:00,
2013-02-06 03:11:00,26.0,15.0,-100.00,West,276,3.0,5.0,64,-99.99,,,0.00,0.000000,,2013-02-06 11:11:00,
2013-02-06 03:42:00,24.0,16.0,-100.00,West,271,3.0,5.0,70,-99.99,,,0.00,0.000000,,2013-02-06 11:42:00,
2013-02-06 03:53:00,24.0,16.0,-100.00,West,271,3.0,5.0,70,-99.99,,,0.00,0.000000,,2013-02-06 11:53:00,
2013-02-06 04:01:00,24.0,16.0,-100.00,West,271,3.0,5.0,70,-99.99,,,0.00,0.000000,,2013-02-06 12:01:00,
2013-02-06 04:12:00,24.0,16.0,-100.00,West,271,3.0,5.0,70,-99.99,,,0.00,0.000000,,2013-02-06 12:12:00,
2013-02-06 04:42:00,21.0,15.0,-100.00,SW,214,2.0,4.0,76,-99.99,,,0.00,0.000000,,2013-02-06 12:42:00,
2013-02-06 04:52:00,21.0,15.0,-100.00,SW,214,2.0,4.0,76,-99.99,,,0.00,0.000000,,2013-02-06 12:52:00,
2013-02-06 05:01:00,21.0,15.0,-100.00,SW,214,2.0,4.0,76,-99.99,,,0.00,0.000000,,2013-02-06 13:01:00,
2013-02-06 05:31:00,20.0,15.0,-100.00,East,79,1.0,3.0,81,-99.99,,,0.00,0.000000,,2013-02-06 13:31:00,
2013-02-06 05:42:00,20.0,15.0,-100.00,East,79,1.0,3.0,81,-99.99,,,0.00,0.000000,,2013-02-06 13:42:00,
2013-02-06 05:52:00,20.0,15.0,-100.00,East,79,1.0,3.0,81,-99.99,,,0.00,0.000000,,2013-02-06 13:52:00,
2013-02-06 06:01:00,20.0,15.0,-100.00,East,79,1.0,3.0,81,-99.99,,,0.00,0.000000,,2013-02-06 14:01:00,
2013-02-06 06:11:00,20.0,15.0,-100.00,East,79,1.0,3.0,81,-99.99,,,0.00,0.000000,,2013-02-06 14:11:00,
2013-02-06 06:31:00,19.0,15.0,-100.00,East,91,2.0,4.0,83,-99.99,,,0.00,0.000000,,2013-02-06 14:31:00,
2013-02-06 06:41:00,19.0,15.0,-100.00,East,91,2.0,4.0,83,-99.99,,,0.00,0.000000,,2013-02-06 14:41:00,
2013-02-06 06:52:00,19.0,15.0,-100.00,East,91,2.0,4.0,83,-99.99,,,0.00,0.000000,,2013-02-06 14:52:00,
2013-02-06 07:01:00,19.0,15.0,-100.00,East,91,2.0,4.0,83,-99.99,,,0.00,0.000000,,2013-02-06 15:01:00,
2013-02-06 07:11:00,19.0,15.0,-100.00,East,91,2.0,4.0,83,-99.99,,,0.00,0.000000,,2013-02-06 15:11:00,
2013-02-06 07:31:00,20.0,17.0,-100.00,NNW,329,0.0,3.0,88,-99.99,,,0.00,14.410000,,2013-02-06 15:31:00,
2013-02-06 07:41:00,20.0,17.0,-100.00,NNW,329,0.0,3.0,88,-99.99,,,0.00,14.410000,,2013-02-06 15:41:00,
2013-02-06 07:52:00,20.0,17.0,-100.00,NNW,329,0.0,3.0,88,-99.99,,,0.00,14.410000,,2013-02-06 15:52:00,
2013-02-06 08:01:00,20.0,17.0,-100.00,NNW,329,0.0,3.0,88,-99.99,,,0.00,14.410000,,2013-02-06 16:01:00,
2013-02-06 08:11:00,20.0,17.0,-100.00,NNW,329,0.0,3.0,88,-99.99,,,0.00,14.410000,,2013-02-06 16:11:00,
2013-02-06 08:32:00,28.0,22.0,-100.00,WSW,251,1.0,3.0,78,-99.99,,,0.00,199.779999,,2013-02-06 16:32:00,
2013-02-06 08:42:00,28.0,22.0,-100.00,WSW,251,1.0,3.0,78,-99.99,,,0.00,199.779999,,2013-02-06 16:42:00,
2013-02-06 08:52:00,28.0,22.0,-100.00,WSW,251,1.0,3.0,78,-99.99,,,0.00,199.779999,,2013-02-06 16:52:00,
2013-02-06 09:01:00,28.0,22.0,-100.00,WSW,251,1.0,3.0,78,-99.99,,,0.00,199.779999,,2013-02-06 17:01:00,
2013-02-06 09:11:00,28.0,22.0,-100.00,WSW,251,1.0,3.0,78,-99.99,,,0.00,199.779999,,2013-02-06 17:11:00,
2013-02-06 09:41:00,37.0,27.0,-100.00,West,262,3.0,5.0,65,-99.99,,,0.00,367.019989,,2013-02-06 17:41:00,
2013-02-06 09:52:00,37.0,27.0,-100.00,West,262,3.0,5.0,65,-99.99,,,0.00,367.019989,,2013-02-06 17:52:00,
2013-02-06 10:01:00,37.0,27.0,-100.00,West,262,3.0,5.0,65,-99.99,,,0.00,367.019989,,2013-02-06 18:01:00,
2013-02-06 10:11:00,37.0,27.0,-100.00,West,262,3.0,5.0,65,-99.99,,,0.00,367.019989,,2013-02-06 18:11:00,
2013-02-06 10:41:00,42.0,28.0,-100.00,West,261,3.0,6.0,55,-99.99,,,0.00,501.609985,,2013-02-06 18:41:00,
2013-02-06 10:52:00,42.0,28.0,-100.00,West,261,3.0,6.0,55,-99.99,,,0.00,501.609985,,2013-02-06 18:52:00,
2013-02-06 11:01:00,42.0,28.0,-100.00,West,261,3.0,6.0,55,-99.99,,,0.00,501.609985,,2013-02-06 19:01:00,
2013-02-06 11:11:00,42.0,28.0,-100.00,West,261,3.0,6.0,55,-99.99,,,0.00,501.609985,,2013-02-06 19:11:00,
2013-02-06 11:41:00,46.0,26.0,-100.00,WSW,248,4.0,7.0,46,-99.99,,,0.00,592.950012,,2013-02-06 19:41:00,
2013-02-06 11:52:00,46.0,26.0,-100.00,WSW,248,4.0,7.0,46,-99.99,,,0.00,592.950012,,2013-02-06 19:52:00,
2013-02-06 12:01:00,46.0,26.0,-100.00,WSW,248,4.0,7.0,46,-99.99,,,0.00,592.950012,,2013-02-06 20:01:00,
2013-02-06 12:11:00,46.0,26.0,-100.00,WSW,248,4.0,7.0,46,-99.99,,,0.00,592.950012,,2013-02-06 20:11:00,
2013-02-06 12:41:00,48.0,24.0,-100.00,SE,133,3.0,12.0,38,-99.99,,,0.00,624.570007,,2013-02-06 20:41:00,
2013-02-06 12:52:00,48.0,24.0,-100.00,SE,133,3.0,12.0,38,-99.99,,,0.00,624.570007,,2013-02-06 20:52:00,
2013-02-06 13:01:00,48.0,24.0,-100.00,SE,133,3.0,12.0,38,-99.99,,,0.00,624.570007,,2013-02-06 21:01:00,
2013-02-06 13:11:00,48.0,24.0,-100.00,SE,133,3.0,12.0,38,-99.99,,,0.00,624.570007,,2013-02-06 21:11:00,
2013-02-06 13:41:00,50.0,21.0,-100.00,SSW,196,3.0,7.0,31,-99.99,,,0.00,598.530029,,2013-02-06 21:41:00,
2013-02-06 13:52:00,50.0,21.0,-100.00,SSW,196,3.0,7.0,31,-99.99,,,0.00,598.530029,,2013-02-06 21:52:00,
2013-02-06 14:01:00,50.0,21.0,-100.00,SSW,196,3.0,7.0,31,-99.99,,,0.00,598.530029,,2013-02-06 22:01:00,
2013-02-06 14:11:00,50.0,21.0,-100.00,SSW,196,3.0,7.0,31,-99.99,,,0.00,598.530029,,2013-02-06 22:11:00,
2013-02-06 14:41:00,51.0,17.0,-100.00,WSW,241,3.0,8.0,25,-99.99,,,0.00,509.739990,,2013-02-06 22:41:00,
2013-02-06 14:52:00,51.0,17.0,-100.00,WSW,241,3.0,8.0,25,-99.99,,,0.00,509.739990,,2013-02-06 22:52:00,
2013-02-06 15:01:00,51.0,17.0,-100.00,WSW,241,3.0,8.0,25,-99.99,,,0.00,509.739990,,2013-02-06 23:01:00,
2013-02-06 15:11:00,51.0,17.0,-100.00,WSW,241,3.0,8.0,25,-99.99,,,0.00,509.739990,,2013-02-06 23:11:00,
2013-02-06 15:41:00,52.0,19.0,-100.00,SSE,148,4.0,6.0,27,-99.99,,,0.00,374.000000,,2013-02-06 23:41:00,
2013-02-06 15:52:00,52.0,19.0,-100.00,SSE,148,4.0,6.0,27,-99.99,,,0.00,374.000000,,2013-02-06 23:52:00,
2013-02-06 16:01:00,52.0,19.0,-100.00,SSE,148,4.0,6.0,27,-99.99,,,0.00,374.000000,,2013-02-07 00:01:00,
2013-02-06 16:11:00,52.0,19.0,-100.00,SSE,148,4.0,6.0,27,-99.99,,,0.00,374.000000,,2013-02-07 00:11:00,
2013-02-06 16:41:00,51.0,14.0,-100.00,SE,137,5.0,10.0,22,-99.99,,,0.00,211.169998,,2013-02-07 00:41:00,
2013-02-06 16:52:00,51.0,14.0,-100.00,SE,137,5.0,10.0,22,-99.99,,,0.00,211.169998,,2013-02-07 00:52:00,
2013-02-06 17:01:00,51.0,14.0,-100.00,SE,137,5.0,10.0,22,-99.99,,,0.00,211.169998,,2013-02-07 01:01:00,
2013-02-06 17:11:00,51.0,14.0,-100.00,SE,137,5.0,10.0,22,-99.99,,,0.00,211.169998,,2013-02-07 01:11:00,
2013-02-06 17:41:00,46.0,15.0,-100.00,East,81,2.0,4.0,28,-99.99,,,0.00,15.690000,,2013-02-07 01:41:00,
2013-02-06 17:52:00,46.0,15.0,-100.00,East,81,2.0,4.0,28,-99.99,,,0.00,15.690000,,2013-02-07 01:52:00,
2013-02-06 18:01:00,46.0,15.0,-100.00,East,81,2.0,4.0,28,-99.99,,,0.00,15.690000,,2013-02-07 02:01:00,
2013-02-06 18:11:00,46.0,15.0,-100.00,East,81,2.0,4.0,28,-99.99,,,0.00,15.690000,,2013-02-07 02:11:00,
2013-02-06 19:02:00,40.0,14.0,-100.00,ENE,67,2.0,3.0,34,-99.99,,,0.00,0.120000,,2013-02-07 03:02:00,
2013-02-06 19:11:00,40.0,14.0,-100.00,ENE,67,2.0,3.0,34,-99.99,,,0.00,0.120000,,2013-02-07 03:11:00,
2013-02-06 19:41:00,36.0,14.0,-100.00,NNE,14,1.0,3.0,39,-99.99,,,0.00,0.000000,,2013-02-07 03:41:00,
2013-02-06 19:52:00,36.0,14.0,-100.00,NNE,14,1.0,3.0,39,-99.99,,,0.00,0.000000,,2013-02-07 03:52:00,
2013-02-06 20:01:00,36.0,14.0,-100.00,NNE,14,1.0,3.0,39,-99.99,,,0.00,0.000000,,2013-02-07 04:01:00,
2013-02-06 20:11:00,36.0,14.0,-100.00,NNE,14,1.0,3.0,39,-99.99,,,0.00,0.000000,,2013-02-07 04:11:00,
2013-02-06 20:41:00,33.0,14.0,-100.00,ENE,70,0.0,3.0,44,-99.99,,,0.00,0.000000,,2013-02-07 04:41:00,
2013-02-06 20:53:00,33.0,14.0,-100.00,ENE,70,0.0,3.0,44,-99.99,,,0.00,0.000000,,2013-02-07 04:53:00,
2013-02-06 21:01:00,33.0,14.0,-100.00,ENE,70,0.0,3.0,44,-99.99,,,0.00,0.000000,,2013-02-07 05:01:00,
2013-02-06 21:11:00,33.0,14.0,-100.00,ENE,70,0.0,3.0,44,-99.99,,,0.00,0.000000,,2013-02-07 05:11:00,
2013-02-06 21:32:00,30.0,15.0,-100.00,WNW,289,2.0,5.0,52,-99.99,,,0.00,0.000000,,2013-02-07 05:32:00,
2013-02-06 21:42:00,30.0,15.0,-100.00,WNW,289,2.0,5.0,52,-99.99,,,0.00,0.000000,,2013-02-07 05:42:00,
2013-02-06 21:52:00,30.0,15.0,-100.00,WNW,289,2.0,5.0,52,-99.99,,,0.00,0.000000,,2013-02-07 05:52:00,
2013-02-06 22:02:00,30.0,15.0,-100.00,WNW,289,2.0,5.0,52,-99.99,,,0.00,0.000000,,2013-02-07 06:02:00,
2013-02-06 22:11:00,30.0,15.0,-100.00,WNW,289,2.0,5.0,52,-99.99,,,0.00,0.000000,,2013-02-07 06:11:00,
2013-02-06 22:43:00,30.0,15.0,-100.00,NW,310,2.0,3.0,52,-99.99,,,0.00,0.000000,,2013-02-07 06:43:00,
2013-02-06 22:52:00,30.0,15.0,-100.00,NW,310,2.0,3.0,52,-99.99,,,0.00,0.000000,,2013-02-07 06:52:00,
2013-02-06 23:01:00,30.0,15.0,-100.00,NW,310,2.0,3.0,52,-99.99,,,0.00,0.000000,,2013-02-07 07:01:00,
2013-02-06 23:11:00,30.0,15.0,-100.00,NW,310,2.0,3.0,52,-99.99,,,0.00,0.000000,,2013-02-07 07:11:00,
2013-02-06 23:32:00,29.0,15.0,-100.00,NW,307,2.0,6.0,55,-99.99,,,0.00,0.000000,,2013-02-07 07:32:00,
2013-02-06 23:41:00,29.0,15.0,-100.00,NW,307,2.0,6.0,55,-99.99,,,0.00,0.000000,,2013-02-07 07:41:00,
2013-02-06 23:52:00,29.0,15.0,-100.00,NW,307,2.0,6.0,55,-99.99,,,0.00,0.000000,,2013-02-07 07:52:00,